Location: Kellogg
(38.0159°N, 90.0546°W)
Time: 06:35:02
(UTC+00:00)

S-56A Canister/Altair - Pass Details

Date: 13 September 2024
Orbit: 636 x 2487 km, 38.9° (Epoch: 09 October)

Event Time Altitude Azimuth Distance (km) Brightness Sun altitude
Rises 05:02:19 0° 283° (WNW) 4,188 11.6 -46.6°
Reaches altitude 10° 05:04:46 10° 282° (WNW) 3,428 11.0 -46.7°
Enters shadow 05:07:01 22° 281° (W) 2,786 10.4 -46.9°
Maximum altitude 05:13:50 79° 198° (SSW) 1,838 - -47.2°
Drops below altitude 10° 05:27:17 10° 114° (ESE) 4,896 - -47.9°
Sets 05:31:29 0° 113° (ESE) 6,041 - -48.0°
